Location: Home
(42.5358°N, 72.7383°W)
Time: 20:16:54
(UTC-05:00)

Transit 4A - Pass Details

Date: 04 December 2021
Orbit: 863 x 981 km, 66.8° (Epoch: 23 January)

Event Time Altitude Azimuth Distance (km) Brightness Sun altitude
Rises 01:35:01 0° 336° (NNW) 3,591 - -58.8°
Reaches altitude 10° 01:39:03 10° 2° (N) 2,671 - -58.2°
Maximum altitude 01:42:07 14° 32° (NNE) 2,418 - -57.7°
Drops below altitude 10° 01:45:13 10° 61° (ENE) 2,702 - -57.2°
Exits shadow 01:48:34 - 83° (E) 3,455 11.3 -56.7°
Sets 01:49:19 0° 87° (E) 3,664 11.5 -56.5°
